This demonstration page uses our WeatherBlox Daily Observations layout. Learn more.

Left ArrowRight Arrow

Hourly Observations for January 26, 2022

Temp ( °F °C ) Dew Point ( °F °C ) Humidity (%) Winds ( mph kmh ) Pressure ( in mb ) Visibility ( mi km ) Precip ( " mm )
12:15 am 00:15 Clear 7 -14 -2 -19 66 66 NW 12 19 30.48 1032 10 16 N/A
12:35 am 00:35 Clear 7 -14 -2 -19 66 66 NW 9 15 30.48 1032 10 16 N/A
12:55 am 00:55 Clear 5 -15 -2 -19 72 72 NW 12 19 30.49 1033 10 16 N/A
1:15 am 01:15 Clear 5 -15 -4 -20 66 66 NW 9 15 30.49 1033 10 16 N/A
1:35 am 01:35 Clear 5 -15 -4 -20 66 66 NW 7 11 30.49 1033 10 16 N/A
1:55 am 01:55 Clear 5 -15 -4 -20 66 66 WNW 9 15 30.49 1033 10 16 N/A
2:15 am 02:15 Clear 3 -16 -4 -20 72 72 NW 10 17 30.50 1033 10 16 N/A
2:35 am 02:35 Clear 3 -16 -4 -20 72 72 WNW 7 11 30.51 1033 10 16 N/A
2:55 am 02:55 Clear 3 -16 -4 -20 72 72 NW 7 11 30.52 1033 10 16 N/A
3:15 am 03:15 Clear 3 -16 -4 -20 72 72 WNW 6 9 30.51 1033 10 16 N/A
3:35 am 03:35 Clear 1 -17 -4 -20 78 78 NW 5 7 30.52 1034 10 16 N/A
3:55 am 03:55 Clear 3 -16 -4 -20 72 72 WNW 7 11 30.52 1033 10 16 N/A
4:15 am 04:15 Clear 1 -17 -4 -20 78 78 NW 5 7 30.52 1034 10 16 N/A
4:35 am 04:35 Clear 1 -17 -4 -20 78 78 WNW 6 9 30.53 1034 10 16 N/A
4:55 am 04:55 Clear 1 -17 -4 -20 78 78 WNW 8 13 30.53 1034 10 16 N/A
5:15 am 05:15 Clear 1 -17 -6 -21 71 71 WNW 3 6 30.54 1034 10 16 N/A
5:35 am 05:35 Clear 1 -17 -4 -20 78 78 WNW 5 7 30.55 1035 10 16 N/A
5:55 am 05:55 Clear 1 -17 -6 -21 71 71 WNW 6 9 30.55 1035 10 16 N/A
6:15 am 06:15 Clear 1 -17 -4 -20 78 78 WNW 7 11 30.56 1035 10 16 N/A
6:35 am 06:35 Clear 0 -18 -6 -21 78 78 WNW 5 7 30.57 1035 10 16 N/A
6:55 am 06:55 Clear 0 -18 -6 -21 78 78 WNW 5 7 30.58 1035 10 16 N/A
7:15 am 07:15 Clear 0 -18 -6 -21 78 78 WNW 5 7 30.59 1036 10 16 N/A
7:35 am 07:35 Clear 0 -18 -6 -21 78 78 NW 5 7 30.59 1036 10 16 N/A
7:55 am 07:55 Clear 0 -18 -6 -21 78 78 NW 6 9 30.60 1036 10 16 N/A
8:15 am 08:15 Sunny 0 -18 -6 -21 78 78 WNW 3 6 30.60 1036 10 16 N/A
8:35 am 08:35 Sunny 1 -17 -4 -20 78 78 WNW 3 6 30.60 1036 10 16 N/A
8:55 am 08:55 Partly Cloudy 1 -17 -4 -20 78 78 W 6 9 30.59 1036 10 16 N/A
9:15 am 09:15 Partly Cloudy 3 -16 -4 -20 72 72 W 5 7 30.60 1036 10 16 N/A
9:35 am 09:35 Sunny 5 -15 -4 -20 66 66 Calm 30.59 1036 10 16 N/A
9:55 am 09:55 Sunny 5 -15 -4 -20 66 66 NW 3 6 30.59 1036 10 16 N/A
10:15 am 10:15 Sunny 7 -14 -2 -19 66 66 WNW 3 6 30.59 1036 10 16 N/A
10:35 am 10:35 Sunny 9 -13 0 -18 66 66 Calm 30.59 1036 10 16 N/A
10:55 am 10:55 Sunny 9 -13 0 -18 66 66 Calm 30.59 1036 10 16 N/A
11:15 am 11:15 Sunny 10 -12 1 -17 67 67 Calm 30.59 1036 10 16 N/A
11:35 am 11:35 Sunny 12 -11 1 -17 62 62 Calm 30.59 1036 10 16 N/A
11:55 am 11:55 Sunny 12 -11 1 -17 62 62 Calm 30.58 1035 10 16 N/A
12:15 pm 12:15 Sunny 14 -10 1 -17 57 57 Calm 30.56 1035 10 16 N/A
12:35 pm 12:35 Sunny 16 -9 1 -17 53 53 SW 3 6 30.55 1035 10 16 N/A
12:55 pm 12:55 Sunny 16 -9 1 -17 53 53 SE 3 6 30.54 1034 10 16 N/A
1:15 pm 13:15 Sunny 16 -9 0 -18 48 48 ESE 5 7 30.53 1034 10 16 N/A
1:35 pm 13:35 Sunny 16 -9 1 -17 53 53 S 6 9 30.52 1034 10 16 N/A
1:55 pm 13:55 Sunny 18 -8 1 -17 49 49 S 3 6 30.50 1033 10 16 N/A
2:15 pm 14:15 Sunny 19 -7 1 -17 45 45 SSE 6 9 30.49 1033 10 16 N/A
2:35 pm 14:35 Sunny 18 -8 1 -17 49 49 SW 3 6 30.49 1032 10 16 N/A
2:55 pm 14:55 Sunny 19 -7 1 -17 45 45 S 6 9 30.47 1032 10 16 N/A
3:15 pm 15:15 Sunny 21 -6 1 -17 42 42 SSE 6 9 30.47 1032 10 16 N/A
3:35 pm 15:35 Sunny 21 -6 1 -17 42 42 SSW 5 7 30.47 1032 10 16 N/A
3:55 pm 15:55 Sunny 21 -6 1 -17 42 42 SW 7 11 30.47 1032 10 16 N/A
4:15 pm 16:15 Sunny 21 -6 0 -18 38 38 SSW 5 7 30.47 1032 10 16 N/A
4:35 pm 16:35 Sunny 21 -6 1 -17 42 42 SW 3 6 30.47 1032 10 16 N/A
4:55 pm 16:55 Sunny 19 -7 1 -17 45 45 SSE 3 6 30.47 1032 10 16 N/A
5:15 pm 17:15 Sunny 19 -7 1 -17 45 45 S 5 7 30.47 1032 10 16 N/A
5:35 pm 17:35 Sunny 19 -7 1 -17 45 45 S 6 9 30.46 1032 10 16 N/A
5:55 pm 17:55 Sunny 18 -8 1 -17 49 49 SSE 5 7 30.47 1032 10 16 N/A
6:15 pm 18:15 Clear 16 -9 1 -17 53 53 S 3 6 30.47 1032 10 16 N/A
6:35 pm 18:35 Clear 16 -9 1 -17 53 53 SSE 3 6 30.47 1032 10 16 N/A
6:55 pm 18:55 Clear 14 -10 1 -17 57 57 SSE 3 6 30.47 1032 10 16 N/A
7:15 pm 19:15 Clear 14 -10 1 -17 57 57 SSE 3 6 30.47 1032 10 16 N/A
7:35 pm 19:35 Clear 14 -10 1 -17 57 57 SSE 3 6 30.47 1032 10 16 N/A
7:55 pm 19:55 Clear 14 -10 1 -17 57 57 S 5 7 30.47 1032 10 16 N/A
8:15 pm 20:15 Clear 14 -10 1 -17 57 57 SSE 5 7 30.46 1032 10 16 N/A
8:35 pm 20:35 Clear 14 -10 0 -18 52 52 SSE 3 6 30.45 1031 10 16 N/A
8:55 pm 20:55 Clear 14 -10 0 -18 52 52 SSE 3 6 30.45 1031 10 16 N/A
9:15 pm 21:15 Clear 12 -11 0 -18 57 57 SSE 5 7 30.45 1031 10 16 N/A
9:35 pm 21:35 Clear 12 -11 0 -18 57 57 S 5 7 30.45 1031 10 16 N/A
9:55 pm 21:55 Clear 12 -11 0 -18 57 57 S 5 7 30.43 1030 10 16 N/A
10:15 pm 22:15 Clear 12 -11 1 -17 62 62 S 6 9 30.43 1030 10 16 N/A
10:35 pm 22:35 Clear 12 -11 1 -17 62 62 S 6 9 30.42 1030 10 16 N/A
10:55 pm 22:55 Clear 12 -11 1 -17 62 62 S 5 7 30.42 1030 10 16 N/A
11:15 pm 23:15 Clear 12 -11 1 -17 62 62 S 6 9 30.42 1030 10 16 N/A
11:35 pm 23:35 Clear 10 -12 1 -17 67 67 SSW 6 9 30.42 1030 10 16 N/A
11:55 pm 23:55 Clear 10 -12 1 -17 67 67 SSW 5 7 30.41 1030 10 16 N/A

Powered by AerisWeather